This is the latest recevied weather packets stored in our database for station/object KB3UMW-13. If no packets are shown the sender has not sent any weather packets the latest 1 day(s).
| Time | Temp. | Humidity | Pressure | Rain* | Wind** | Luminosity | Snow |
|---|---|---|---|---|---|---|---|
| 1778033742 | 11.67° C | 86% | 1011.3 hPa | 0 mm | - | 0 W/m² | - |
| 1778033439 | 11.67° C | 85% | 1011.3 hPa | 0 mm | - | 0 W/m² | - |
| 1778033136 | 11.67° C | 86% | 1011.4 hPa | 0 mm | - | 0 W/m² | - |
| 1778032833 | 11.67° C | 86% | 1011.4 hPa | 0 mm | - | 0 W/m² | - |
| 1778032531 | 11.11° C | 86% | 1011.1 hPa | 0 mm | - | 0 W/m² | - |
| 1778032227 | 11.11° C | 86% | 1011.4 hPa | 0 mm | - | 0 W/m² | - |
| 1778031925 | 11.11° C | 86% | 1011.1 hPa | 0 mm | - | 0 W/m² | - |
| 1778031621 | 11.11° C | 86% | 1011 hPa | 0 mm | - | 0 W/m² | - |
| 1778031016 | 11.11° C | 86% | 1011.2 hPa | 0 mm | - | 0 W/m² | - |
| 1778030107 | 11.11° C | 83% | 1011.5 hPa | 0 mm | - | 0 W/m² | - |
| 1778029197 | 11.11° C | 82% | 1011.2 hPa | 0 mm | - | 0 W/m² | - |
| 1778028895 | 11.11° C | 82% | 1011.3 hPa | 0 mm | - | 0 W/m² | - |
| 1778028590 | 11.67° C | 81% | 1011 hPa | 0 mm | - | 0 W/m² | - |
| 1778028289 | 11.67° C | 78% | 1011.3 hPa | 0 mm | - | 0 W/m² | - |
| 1778027681 | 12.22° C | 77% | 1011.3 hPa | 0 mm | - | 0 W/m² | - |
| 1778026769 | 12.78° C | 75% | 1011.4 hPa | 0 mm | - | 1 W/m² | - |
| 1778026164 | 13.89° C | 74% | 1011.2 hPa | 0 mm | - | 3 W/m² | - |
| 1778025256 | 15.56° C | 65% | 1011 hPa | 0 mm | - | 8 W/m² | - |
| 1778023742 | 17.22° C | 63% | 1010.6 hPa | 0 mm | - | 37 W/m² | - |
| 1778023136 | 17.78° C | 59% | 1010.6 hPa | 0 mm | - | 44 W/m² | - |
| 1778022532 | 18.89° C | 55% | 1010.7 hPa | 0 mm | - | 43 W/m² | - |
| 1778022229 | 18.89° C | 53% | 1011 hPa | 0 mm | - | 44 W/m² | - |
| 1778021623 | 19.44° C | 52% | 1010.8 hPa | 0 mm | - | 92 W/m² | - |
| 1778019499 | 19.44° C | 49% | 1011.1 hPa | 0 mm | - | 56 W/m² | - |
| 1778017077 | 20.56° C | 51% | 1011.2 hPa | 0 mm | - | 184 W/m² | - |
* Rain latest hour (hover to see other rain measurements)
** Current wind speed in m/s (hover to see current wind gust speed)